Volver al catálogo

SATCOM 3R

ActivoComunicacionesGEO
NORAD 12967·PAYLOAD·🇺🇸 United States

Lanzado Nov 20, 1981 desde Cape Canaveral Space Force Station

Loading…

TLE

ActualizadoSource: Space-Track

Época: Sep 14, 2026, 13:13 UTC

1 12967U 81114A   26257.55126147 -.00000125  00000-0  00000-0 0  9992
2 12967  11.9891 331.2867 0005019 298.9997  85.8590  1.00140558128969

Sigue SATCOM 3R en tiempo real con AllMySat

Download on the App Store